"Sample Date","Sample Time","Sample Value","Units","Flow Rate","Number Channels","Micron Size 0","Counts/Channel 0","Micron Size 1","Counts/Channel 1","Micron Size 2","Counts/Channel 2","Micron Size 3","Counts/Channel 3","Micron Size 4","Counts/Channel 4","Micron Size 5","Counts/Channel 5","Micron Size 6","Counts/Channel 6","Micron Size 7","Counts/Channel 7","Micron Size 8","Counts/Channel 8","Micron Size 9","Counts/Channel 9","Micron Size 10","Counts/Channel 10","Micron Size 11","Counts/Channel 11","Micron Size 12","Counts/Channel 12","Micron Size 13","Counts/Channel 13","Micron Size 14","Counts/Channel 14","Micron Size 15","Counts/Channel 15","Micron Size 16","Counts/Channel 16","Micron Size 17","Counts/Channel 17","Micron Size 18","Counts/Channel 18","Micron Size 19","Counts/Channel 19","Micron Size 20","Counts/Channel 20","Micron Size 21","Counts/Channel 21","Micron Size 22","Counts/Channel 22","Micron Size 23","Counts/Channel 23","Micron Size 24","Counts/Channel 24","Micron Size 25","Counts/Channel 25","Micron Size 26","Counts/Channel 26","Micron Size 27","Counts/Channel 27","Micron Size 28","Counts/Channel 28","Micron Size 29","Counts/Channel 29","Micron Size 30","Counts/Channel 30","Micron Size 31","Counts/Channel 31"
"05/11/08","02:00:04",5202.000,"cc",28319.066,6,0.100,4449.000,0.200,679.000,0.300,64.000,0.500,10.000,1.000,0,5.000,0
"05/11/08","02:00:10",8264.000,"cc",28287.582,6,0.100,7170.000,0.200,1012.000,0.300,68.000,0.500,13.000,1.000,1.000,5.000,0
"05/11/08","02:00:16",11444.000,"cc",28367.445,6,0.100,9870.000,0.200,1494.000,0.300,69.000,0.500,10.000,1.000,1.000,5.000,0
"05/11/08","02:00:22",11453.000,"cc",28340.631,6,0.100,9940.000,0.200,1431.000,0.300,75.000,0.500,7.000,1.000,0,5.000,0
"05/11/08","02:00:28",7595.000,"cc",28260.190,6,0.100,6576.000,0.200,947.000,0.300,61.000,0.500,10.000,1.000,1.000,5.000,0
"05/11/08","02:00:34",8541.000,"cc",28311.150,6,0.100,7405.000,0.200,1056.000,0.300,70.000,0.500,9.000,1.000,1.000,5.000,0
"05/11/08","02:00:40",5350.000,"cc",28306.451,6,0.100,4559.000,0.200,713.000,0.300,70.000,0.500,8.000,1.000,0,5.000,0
"05/11/08","02:00:46",6583.000,"cc",28332.188,6,0.100,5685.000,0.200,847.000,0.300,45.000,0.500,6.000,1.000,0,5.000,0
"05/11/08","02:00:52",7464.000,"cc",28325.150,6,0.100,6537.000,0.200,857.000,0.300,57.000,0.500,13.000,1.000,0,5.000,0
"05/11/08","02:00:58",7282.000,"cc",28356.523,6,0.100,6263.000,0.200,932.000,0.300,79.000,0.500,7.000,1.000,1.000,5.000,0
"05/11/08","02:01:04",9861.000,"cc",28277.486,6,0.100,8525.000,0.200,1241.000,0.300,79.000,0.500,13.000,1.000,3.000,5.000,0
"05/11/08","02:01:10",6343.000,"cc",28274.322,6,0.100,5455.000,0.200,815.000,0.300,60.000,0.500,13.000,1.000,0,5.000,0
"05/11/08","02:01:16",5548.000,"cc",28367.449,6,0.100,4753.000,0.200,714.000,0.300,73.000,0.500,8.000,1.000,0,5.000,0
"05/11/08","02:01:22",5209.000,"cc",28336.754,6,0.100,4437.000,0.200,690.000,0.300,72.000,0.500,10.000,1.000,0,5.000,0
"05/11/08","02:01:28",5238.000,"cc",28327.135,6,0.100,4478.000,0.200,677.000,0.300,75.000,0.500,8.000,1.000,0,5.000,0
"05/11/08","02:01:34",3916.000,"cc",28308.447,6,0.100,3340.000,0.200,509.000,0.300,58.000,0.500,8.000,1.000,1.000,5.000,0
"05/11/08","02:01:40",4217.000,"cc",28326.570,6,0.100,3617.000,0.200,528.000,0.300,64.000,0.500,8.000,1.000,0,5.000,0
"05/11/08","02:01:46",6087.000,"cc",28311.826,6,0.100,5219.000,0.200,786.000,0.300,68.000,0.500,14.000,1.000,0,5.000,0
"05/11/08","02:01:52",6063.000,"cc",28302.393,6,0.100,5225.000,0.200,766.000,0.300,61.000,0.500,11.000,1.000,0,5.000,0
"05/11/08","02:01:58",4483.000,"cc",28319.449,6,0.100,3825.000,0.200,588.000,0.300,65.000,0.500,5.000,1.000,0,5.000,0
"05/11/08","02:02:04",6677.000,"cc",28281.621,6,0.100,5732.000,0.200,853.000,0.300,75.000,0.500,17.000,1.000,0,5.000,0
"05/11/08","02:02:10",4640.000,"cc",28369.541,6,0.100,3976.000,0.200,598.000,0.300,57.000,0.500,9.000,1.000,0,5.000,0
"05/11/08","02:02:16",3374.000,"cc",28275.557,6,0.100,2887.000,0.200,429.000,0.300,47.000,0.500,11.000,1.000,0,5.000,0
"05/11/08","02:02:22",10579.000,"cc",28312.418,6,0.100,9181.000,0.200,1328.000,0.300,59.000,0.500,11.000,1.000,0,5.000,0
"05/11/08","02:02:28",10566.000,"cc",28300.434,6,0.100,9202.000,0.200,1264.000,0.300,87.000,0.500,13.000,1.000,0,5.000,0
"05/11/08","02:02:34",6021.000,"cc",28329.424,6,0.100,5192.000,0.200,770.000,0.300,53.000,0.500,6.000,1.000,0,5.000,0
"05/11/08","02:02:40",5477.000,"cc",28320.229,6,0.100,4763.000,0.200,661.000,0.300,46.000,0.500,7.000,1.000,0,5.000,0
"05/11/08","02:02:46",14080.000,"cc",28286.160,6,0.100,12268.000,0.200,1720.000,0.300,85.000,0.500,6.000,1.000,1.000,5.000,0
"05/11/08","02:02:52",21607.000,"cc",28329.506,6,0.100,18949.000,0.200,2523.000,0.300,122.000,0.500,12.000,1.000,1.000,5.000,0
"05/11/08","02:02:58",14549.000,"cc",28391.285,6,0.100,12795.000,0.200,1667.000,0.300,80.000,0.500,7.000,1.000,0,5.000,0
"05/11/08","02:03:04",11854.000,"cc",28277.328,6,0.100,10348.000,0.200,1426.000,0.300,70.000,0.500,10.000,1.000,0,5.000,0
"05/11/08","02:03:10",9370.000,"cc",28338.768,6,0.100,8167.000,0.200,1146.000,0.300,50.000,0.500,7.000,1.000,0,5.000,0
"05/11/08","02:03:16",11922.000,"cc",28262.498,6,0.100,10536.000,0.200,1324.000,0.300,53.000,0.500,8.000,1.000,1.000,5.000,0
"05/11/08","02:03:22",14440.000,"cc",28312.602,6,0.100,12620.000,0.200,1734.000,0.300,78.000,0.500,8.000,1.000,0,5.000,0
"05/11/08","02:03:28",4744.000,"cc",28321.080,6,0.100,4062.000,0.200,620.000,0.300,58.000,0.500,3.000,1.000,1.000,5.000,0
"05/11/08","02:03:34",5972.000,"cc",28264.590,6,0.100,5200.000,0.200,716.000,0.300,47.000,0.500,9.000,1.000,0,5.000,0
"05/11/08","02:03:40",5692.000,"cc",28342.992,6,0.100,4899.000,0.200,737.000,0.300,47.000,0.500,9.000,1.000,0,5.000,0
"05/11/08","02:03:46",5263.000,"cc",28329.305,6,0.100,4556.000,0.200,653.000,0.300,45.000,0.500,9.000,1.000,0,5.000,0
"05/11/08","02:03:52",4853.000,"cc",28350.496,6,0.100,4196.000,0.200,592.000,0.300,52.000,0.500,13.000,1.000,0,5.000,0
"05/11/08","02:03:58",5135.000,"cc",28366.090,6,0.100,4438.000,0.200,653.000,0.300,39.000,0.500,5.000,1.000,0,5.000,0
"05/11/08","02:04:04",6494.000,"cc",28296.459,6,0.100,5634.000,0.200,790.000,0.300,57.000,0.500,13.000,1.000,0,5.000,0
"05/11/08","02:04:10",8306.000,"cc",28280.986,6,0.100,7177.000,0.200,1039.000,0.300,75.000,0.500,14.000,1.000,1.000,5.000,0
"05/11/08","02:04:16",9701.000,"cc",28347.340,6,0.100,8479.000,0.200,1144.000,0.300,62.000,0.500,16.000,1.000,0,5.000,0
"05/11/08","02:04:22",10224.000,"cc",28314.258,6,0.100,8912.000,0.200,1232.000,0.300,64.000,0.500,15.000,1.000,1.000,5.000,0
"05/11/08","02:04:28",6819.000,"cc",28368.572,6,0.100,5927.000,0.200,838.000,0.300,41.000,0.500,11.000,1.000,2.000,5.000,0
"05/11/08","02:04:34",16158.000,"cc",28219.736,6,0.100,14215.000,0.200,1856.000,0.300,74.000,0.500,13.000,1.000,0,5.000,0
"05/11/08","02:04:40",10922.000,"cc",28305.928,6,0.100,9615.000,0.200,1223.000,0.300,73.000,0.500,11.000,1.000,0,5.000,0
"05/11/08","02:04:46",19059.000,"cc",28313.426,6,0.100,16851.000,0.200,2103.000,0.300,92.000,0.500,13.000,1.000,0,5.000,0
"05/11/08","02:04:52",13242.000,"cc",28339.619,6,0.100,11656.000,0.200,1505.000,0.300,67.000,0.500,13.000,1.000,1.000,5.000,0
"05/11/08","02:04:58",8679.000,"cc",28309.000,6,0.100,7608.000,0.200,1017.000,0.300,49.000,0.500,5.000,1.000,0,5.000,0
"05/11/08","02:05:04",11740.000,"cc",28302.305,6,0.100,10317.000,0.200,1349.000,0.300,62.000,0.500,11.000,1.000,1.000,5.000,0
"05/11/08","02:05:10",7793.000,"cc",28313.311,6,0.100,6841.000,0.200,890.000,0.300,52.000,0.500,10.000,1.000,0,5.000,0
"05/11/08","02:05:16",9566.000,"cc",28287.527,6,0.100,8408.000,0.200,1082.000,0.300,67.000,0.500,9.000,1.000,0,5.000,0
"05/11/08","02:05:22",7629.000,"cc",28331.051,6,0.100,6693.000,0.200,871.000,0.300,61.000,0.500,4.000,1.000,0,5.000,0
"05/11/08","02:05:28",5341.000,"cc",28274.109,6,0.100,4669.000,0.200,620.000,0.300,44.000,0.500,7.000,1.000,1.000,5.000,0
"05/11/08","02:05:34",3526.000,"cc",28325.613,6,0.100,3058.000,0.200,427.000,0.300,34.000,0.500,7.000,1.000,0,5.000,0
"05/11/08","02:05:40",3007.000,"cc",28309.467,6,0.100,2551.000,0.200,404.000,0.300,46.000,0.500,6.000,1.000,0,5.000,0
"05/11/08","02:05:46",4256.000,"cc",28406.065,6,0.100,3636.000,0.200,568.000,0.300,43.000,0.500,8.000,1.000,1.000,5.000,0
"05/11/08","02:05:52",3371.000,"cc",28321.813,6,0.100,2893.000,0.200,421.000,0.300,45.000,0.500,11.000,1.000,1.000,5.000,0
"05/11/08","02:05:58",4272.000,"cc",28323.027,6,0.100,3690.000,0.200,524.000,0.300,47.000,0.500,11.000,1.000,0,5.000,0
"05/11/08","02:06:04",3357.000,"cc",28317.969,6,0.100,2863.000,0.200,447.000,0.300,35.000,0.500,11.000,1.000,1.000,5.000,0
"05/11/08","02:06:10",3931.000,"cc",28333.565,6,0.100,3397.000,0.200,467.000,0.300,54.000,0.500,13.000,1.000,0,5.000,0
"05/11/08","02:06:16",4042.000,"cc",28326.117,6,0.100,3483.000,0.200,512.000,0.300,38.000,0.500,8.000,1.000,1.000,5.000,0
"05/11/08","02:06:22",4560.000,"cc",28320.691,6,0.100,3920.000,0.200,582.000,0.300,44.000,0.500,13.000,1.000,1.000,5.000,0
"05/11/08","02:06:28",3428.000,"cc",28337.773,6,0.100,2930.000,0.200,442.000,0.300,44.000,0.500,12.000,1.000,0,5.000,0
"05/11/08","02:06:34",6789.000,"cc",28298.709,6,0.100,5857.000,0.200,834.000,0.300,88.000,0.500,10.000,1.000,0,5.000,0
"05/11/08","02:06:40",5232.000,"cc",28352.752,6,0.100,4583.000,0.200,600.000,0.300,48.000,0.500,1.000,1.000,0,5.000,0
"05/11/08","02:06:46",5617.000,"cc",28271.482,6,0.100,4860.000,0.200,694.000,0.300,49.000,0.500,14.000,1.000,0,5.000,0
"05/11/08","02:06:52",5932.000,"cc",28324.762,6,0.100,5176.000,0.200,696.000,0.300,46.000,0.500,13.000,1.000,1.000,5.000,0
"05/11/08","02:06:58",5078.000,"cc",28303.988,6,0.100,4393.000,0.200,616.000,0.300,56.000,0.500,13.000,1.000,0,5.000,0
"05/11/08","02:07:04",4954.000,"cc",28371.053,6,0.100,4315.000,0.200,582.000,0.300,48.000,0.500,9.000,1.000,0,5.000,0
"05/11/08","02:07:10",10385.000,"cc",28321.629,6,0.100,9140.000,0.200,1148.000,0.300,83.000,0.500,14.000,1.000,0,5.000,0
"05/11/08","02:07:16",11947.000,"cc",28310.162,6,0.100,10428.000,0.200,1420.000,0.300,88.000,0.500,11.000,1.000,0,5.000,0
"05/11/08","02:07:22",12853.000,"cc",28295.125,6,0.100,11303.000,0.200,1461.000,0.300,76.000,0.500,13.000,1.000,0,5.000,0
"05/11/08","02:07:28",22607.000,"cc",28338.754,6,0.100,19905.000,0.200,2568.000,0.300,119.000,0.500,14.000,1.000,1.000,5.000,0
"05/11/08","02:07:34",11807.000,"cc",28272.152,6,0.100,10307.000,0.200,1409.000,0.300,80.000,0.500,10.000,1.000,1.000,5.000,0
"05/11/08","02:07:40",7420.000,"cc",28341.816,6,0.100,6513.000,0.200,834.000,0.300,59.000,0.500,14.000,1.000,0,5.000,0
"05/11/08","02:07:46",5692.000,"cc",28256.410,6,0.100,4923.000,0.200,706.000,0.300,59.000,0.500,4.000,1.000,0,5.000,0
"05/11/08","02:07:52",7261.000,"cc",28309.701,6,0.100,6311.000,0.200,889.000,0.300,56.000,0.500,5.000,1.000,0,5.000,0
"05/11/08","02:07:58",4256.000,"cc",28352.191,6,0.100,3695.000,0.200,512.000,0.300,44.000,0.500,5.000,1.000,0,5.000,0
"05/11/08","02:08:04",8684.000,"cc",28302.281,6,0.100,7617.000,0.200,1004.000,0.300,53.000,0.500,10.000,1.000,0,5.000,0
"05/11/08","02:08:10",9763.000,"cc",28306.621,6,0.100,8534.000,0.200,1166.000,0.300,55.000,0.500,7.000,1.000,1.000,5.000,0
"05/11/08","02:08:16",7922.000,"cc",28335.527,6,0.100,6942.000,0.200,920.000,0.300,49.000,0.500,11.000,1.000,0,5.000,0
"05/11/08","02:08:22",12214.000,"cc",28329.049,6,0.100,10684.000,0.200,1434.000,0.300,89.000,0.500,7.000,1.000,0,5.000,0
"05/11/08","02:08:28",8668.000,"cc",28337.359,6,0.100,7561.000,0.200,1019.000,0.300,74.000,0.500,13.000,1.000,1.000,5.000,0
"05/11/08","02:08:34",8567.000,"cc",28295.447,6,0.100,7469.000,0.200,1028.000,0.300,58.000,0.500,11.000,1.000,1.000,5.000,0
"05/11/08","02:08:40",14051.000,"cc",28270.301,6,0.100,12343.000,0.200,1633.000,0.300,66.000,0.500,8.000,1.000,1.000,5.000,0
"05/11/08","02:08:46",17611.000,"cc",28326.250,6,0.100,15558.000,0.200,1956.000,0.300,82.000,0.500,14.000,1.000,1.000,5.000,0
"05/11/08","02:08:52",15077.000,"cc",28335.506,6,0.100,13311.000,0.200,1677.000,0.300,83.000,0.500,6.000,1.000,0,5.000,0
"05/11/08","02:08:58",16797.000,"cc",28336.201,6,0.100,14797.000,0.200,1922.000,0.300,68.000,0.500,10.000,1.000,0,5.000,0
"05/11/08","02:09:04",18662.000,"cc",28332.039,6,0.100,16463.000,0.200,2089.000,0.300,99.000,0.500,11.000,1.000,0,5.000,0
"05/11/08","02:09:10",23620.000,"cc",28334.561,6,0.100,20786.000,0.200,2708.000,0.300,106.000,0.500,20.000,1.000,0,5.000,0
"05/11/08","02:09:16",17537.000,"cc",28272.020,6,0.100,15508.000,0.200,1950.000,0.300,74.000,0.500,5.000,1.000,0,5.000,0
"05/11/08","02:09:22",13184.000,"cc",28322.525,6,0.100,11590.000,0.200,1515.000,0.300,70.000,0.500,8.000,1.000,1.000,5.000,0
"05/11/08","02:09:28",13561.000,"cc",28308.516,6,0.100,11890.000,0.200,1592.000,0.300,64.000,0.500,14.000,1.000,1.000,5.000,0
"05/11/08","02:09:34",13823.000,"cc",28326.197,6,0.100,12175.000,0.200,1547.000,0.300,86.000,0.500,15.000,1.000,0,5.000,0
"05/11/08","02:09:40",11212.000,"cc",28325.195,6,0.100,9841.000,0.200,1270.000,0.300,90.000,0.500,11.000,1.000,0,5.000,0
"05/11/08","02:09:46",10421.000,"cc",28286.190,6,0.100,9078.000,0.200,1237.000,0.300,96.000,0.500,9.000,1.000,1.000,5.000,0
"05/11/08","02:09:52",10472.000,"cc",28300.209,6,0.100,9117.000,0.200,1276.000,0.300,67.000,0.500,10.000,1.000,2.000,5.000,0
"05/11/08","02:09:58",13811.000,"cc",28276.453,6,0.100,12082.000,0.200,1620.000,0.300,94.000,0.500,15.000,1.000,0,5.000,0
"05/11/08","02:10:04",11594.000,"cc",28377.426,6,0.100,10183.000,0.200,1322.000,0.300,79.000,0.500,10.000,1.000,0,5.000,0
"05/11/08","02:10:10",9769.000,"cc",28277.936,6,0.100,8584.000,0.200,1105.000,0.300,74.000,0.500,6.000,1.000,0,5.000,0
"05/11/08","02:10:16",10384.000,"cc",28272.596,6,0.100,9065.000,0.200,1213.000,0.300,85.000,0.500,21.000,1.000,0,5.000,0
"05/11/08","02:10:22",11097.000,"cc",28259.676,6,0.100,9713.000,0.200,1280.000,0.300,86.000,0.500,18.000,1.000,0,5.000,0
"05/11/08","02:10:28",13047.000,"cc",28364.773,6,0.100,11471.000,0.200,1490.000,0.300,74.000,0.500,12.000,1.000,0,5.000,0
"05/11/08","02:10:34",17265.000,"cc",28383.428,6,0.100,15173.000,0.200,1971.000,0.300,102.000,0.500,18.000,1.000,1.000,5.000,0
"05/11/08","02:10:40",15650.000,"cc",28351.963,6,0.100,13748.000,0.200,1793.000,0.300,96.000,0.500,12.000,1.000,1.000,5.000,0
"05/11/08","02:10:46",12375.000,"cc",28288.141,6,0.100,10891.000,0.200,1403.000,0.300,72.000,0.500,9.000,1.000,0,5.000,0
"05/11/08","02:10:52",8350.000,"cc",28354.365,6,0.100,7266.000,0.200,1001.000,0.300,68.000,0.500,12.000,1.000,3.000,5.000,0
"05/11/08","02:10:58",10417.000,"cc",28331.875,6,0.100,9098.000,0.200,1242.000,0.300,66.000,0.500,10.000,1.000,1.000,5.000,0
"05/11/08","02:11:04",10113.000,"cc",28312.320,6,0.100,8832.000,0.200,1187.000,0.300,87.000,0.500,7.000,1.000,0,5.000,0
"05/11/08","02:11:10",11730.000,"cc",28242.760,6,0.100,10224.000,0.200,1427.000,0.300,72.000,0.500,7.000,1.000,0,5.000,0
"05/11/08","02:11:16",9714.000,"cc",28308.213,6,0.100,8465.000,0.200,1169.000,0.300,68.000,0.500,12.000,1.000,0,5.000,0
"05/11/08","02:11:22",9751.000,"cc",28319.326,6,0.100,8528.000,0.200,1154.000,0.300,59.000,0.500,7.000,1.000,3.000,5.000,0
"05/11/08","02:11:28",10793.000,"cc",28342.147,6,0.100,9465.000,0.200,1260.000,0.300,60.000,0.500,8.000,1.000,0,5.000,0
"05/11/08","02:11:34",13833.000,"cc",28300.613,6,0.100,12197.000,0.200,1570.000,0.300,58.000,0.500,7.000,1.000,1.000,5.000,0
"05/11/08","02:11:40",9393.000,"cc",28343.818,6,0.100,8217.000,0.200,1099.000,0.300,68.000,0.500,9.000,1.000,0,5.000,0
"05/11/08","02:11:46",15149.000,"cc",28312.897,6,0.100,13387.000,0.200,1676.000,0.300,76.000,0.500,10.000,1.000,0,5.000,0
"05/11/08","02:11:52",9932.000,"cc",28320.438,6,0.100,8779.000,0.200,1108.000,0.300,40.000,0.500,5.000,1.000,0,5.000,0
"05/11/08","02:11:58",10082.000,"cc",28312.549,6,0.100,8767.000,0.200,1248.000,0.300,60.000,0.500,6.000,1.000,1.000,5.000,0
"05/11/08","02:12:04",12778.000,"cc",28306.883,6,0.100,11195.000,0.200,1507.000,0.300,64.000,0.500,12.000,1.000,0,5.000,0
"05/11/08","02:12:10",9177.000,"cc",28298.477,6,0.100,8064.000,0.200,1035.000,0.300,69.000,0.500,9.000,1.000,0,5.000,0
"05/11/08","02:12:16",11503.000,"cc",28327.135,6,0.100,10092.000,0.200,1335.000,0.300,67.000,0.500,9.000,1.000,0,5.000,0
"05/11/08","02:12:22",7915.000,"cc",28330.131,6,0.100,6970.000,0.200,894.000,0.300,49.000,0.500,2.000,1.000,0,5.000,0
"05/11/08","02:12:28",8204.000,"cc",28289.627,6,0.100,7198.000,0.200,943.000,0.300,53.000,0.500,10.000,1.000,0,5.000,0
"05/11/08","02:12:34",11144.000,"cc",28281.119,6,0.100,9875.000,0.200,1192.000,0.300,70.000,0.500,7.000,1.000,0,5.000,0
"05/11/08","02:12:40",6833.000,"cc",28263.027,6,0.100,6001.000,0.200,772.000,0.300,53.000,0.500,7.000,1.000,0,5.000,0
"05/11/08","02:12:46",9197.000,"cc",28342.330,6,0.100,8038.000,0.200,1082.000,0.300,66.000,0.500,11.000,1.000,0,5.000,0
"05/11/08","02:12:52",9008.000,"cc",28348.680,6,0.100,7950.000,0.200,987.000,0.300,59.000,0.500,12.000,1.000,0,5.000,0
"05/11/08","02:12:58",8980.000,"cc",28310.459,6,0.100,7857.000,0.200,1056.000,0.300,53.000,0.500,14.000,1.000,0,5.000,0
"05/11/08","02:13:04",13593.000,"cc",28272.553,6,0.100,11875.000,0.200,1597.000,0.300,98.000,0.500,23.000,1.000,0,5.000,0
"05/11/08","02:13:10",20978.000,"cc",28354.170,6,0.100,18375.000,0.200,2488.000,0.300,97.000,0.500,18.000,1.000,0,5.000,0
"05/11/08","02:13:16",8808.000,"cc",28319.066,6,0.100,7737.000,0.200,1006.000,0.300,56.000,0.500,8.000,1.000,1.000,5.000,0
"05/11/08","02:13:22",15760.000,"cc",28362.877,6,0.100,13846.000,0.200,1834.000,0.300,65.000,0.500,15.000,1.000,0,5.000,0
"05/11/08","02:13:28",13957.000,"cc",28275.025,6,0.100,12220.000,0.200,1645.000,0.300,74.000,0.500,17.000,1.000,1.000,5.000,0
"05/11/08","02:13:34",9854.000,"cc",28346.883,6,0.100,8676.000,0.200,1109.000,0.300,62.000,0.500,6.000,1.000,1.000,5.000,0
"05/11/08","02:13:40",9043.000,"cc",28323.609,6,0.100,7938.000,0.200,1022.000,0.300,65.000,0.500,18.000,1.000,0,5.000,0
"05/11/08","02:13:46",7849.000,"cc",28318.131,6,0.100,6815.000,0.200,972.000,0.300,56.000,0.500,5.000,1.000,1.000,5.000,0
"05/11/08","02:13:52",7492.000,"cc",28326.391,6,0.100,6510.000,0.200,910.000,0.300,61.000,0.500,11.000,1.000,0,5.000,0
"05/11/08","02:13:58",5969.000,"cc",28343.441,6,0.100,5204.000,0.200,712.000,0.300,44.000,0.500,9.000,1.000,0,5.000,0
"05/11/08","02:14:04",6563.000,"cc",28289.844,6,0.100,5694.000,0.200,807.000,0.300,53.000,0.500,9.000,1.000,0,5.000,0
"05/11/08","02:14:10",5608.000,"cc",28296.049,6,0.100,4862.000,0.200,682.000,0.300,55.000,0.500,8.000,1.000,1.000,5.000,0
"05/11/08","02:14:16",5229.000,"cc",28306.219,6,0.100,4573.000,0.200,601.000,0.300,48.000,0.500,7.000,1.000,0,5.000,0
"05/11/08","02:14:22",6603.000,"cc",28262.313,6,0.100,5779.000,0.200,763.000,0.300,56.000,0.500,5.000,1.000,0,5.000,0
"05/11/08","02:14:28",4628.000,"cc",28360.523,6,0.100,4042.000,0.200,544.000,0.300,35.000,0.500,7.000,1.000,0,5.000,0
"05/11/08","02:14:34",5686.000,"cc",28385.244,6,0.100,4983.000,0.200,638.000,0.300,53.000,0.500,12.000,1.000,0,5.000,0
"05/11/08","02:14:40",7940.000,"cc",28343.143,6,0.100,6973.000,0.200,894.000,0.300,66.000,0.500,7.000,1.000,0,5.000,0
"05/11/08","02:14:46",8018.000,"cc",28276.631,6,0.100,6952.000,0.200,974.000,0.300,75.000,0.500,16.000,1.000,1.000,5.000,0
"05/11/08","02:14:52",6586.000,"cc",28316.856,6,0.100,5758.000,0.200,778.000,0.300,47.000,0.500,3.000,1.000,0,5.000,0
"05/11/08","02:14:58",6101.000,"cc",28244.356,6,0.100,5316.000,0.200,722.000,0.300,52.000,0.500,11.000,1.000,0,5.000,0
"05/11/08","02:15:04",7345.000,"cc",28249.053,6,0.100,6451.000,0.200,818.000,0.300,66.000,0.500,9.000,1.000,1.000,5.000,0
"05/11/08","02:15:10",4675.000,"cc",28310.527,6,0.100,4072.000,0.200,553.000,0.300,39.000,0.500,10.000,1.000,1.000,5.000,0
"05/11/08","02:15:16",3725.000,"cc",28348.477,6,0.100,3216.000,0.200,482.000,0.300,24.000,0.500,3.000,1.000,0,5.000,0
"05/11/08","02:15:22",3848.000,"cc",28358.238,6,0.100,3407.000,0.200,403.000,0.300,31.000,0.500,7.000,1.000,0,5.000,0
"05/11/08","02:15:28",3610.000,"cc",28352.049,6,0.100,3085.000,0.200,484.000,0.300,34.000,0.500,7.000,1.000,0,5.000,0
"05/11/08","02:15:34",4580.000,"cc",28342.557,6,0.100,3944.000,0.200,567.000,0.300,57.000,0.500,12.000,1.000,0,5.000,0
"05/11/08","02:15:40",5805.000,"cc",28344.203,6,0.100,5050.000,0.200,691.000,0.300,55.000,0.500,9.000,1.000,0,5.000,0
"05/11/08","02:15:46",5284.000,"cc",28354.697,6,0.100,4585.000,0.200,634.000,0.300,54.000,0.500,10.000,1.000,1.000,5.000,0
"05/11/08","02:15:52",5509.000,"cc",28332.147,6,0.100,4772.000,0.200,662.000,0.300,63.000,0.500,12.000,1.000,0,5.000,0
"05/11/08","02:15:58",5109.000,"cc",28335.055,6,0.100,4359.000,0.200,678.000,0.300,56.000,0.500,15.000,1.000,1.000,5.000,0
"05/11/08","02:16:04",6032.000,"cc",28337.479,6,0.100,5204.000,0.200,748.000,0.300,62.000,0.500,18.000,1.000,0,5.000,0
"05/11/08","02:16:10",6821.000,"cc",28320.398,6,0.100,5929.000,0.200,805.000,0.300,75.000,0.500,12.000,1.000,0,5.000,0
"05/11/08","02:16:16",5815.000,"cc",28275.508,6,0.100,5061.000,0.200,689.000,0.300,55.000,0.500,10.000,1.000,0,5.000,0
"05/11/08","02:16:22",4214.000,"cc",28332.266,6,0.100,3652.000,0.200,513.000,0.300,45.000,0.500,4.000,1.000,0,5.000,0
"05/11/08","02:16:28",6278.000,"cc",28302.701,6,0.100,5455.000,0.200,761.000,0.300,54.000,0.500,8.000,1.000,0,5.000,0
"05/11/08","02:16:34",6707.000,"cc",28331.885,6,0.100,5806.000,0.200,838.000,0.300,49.000,0.500,12.000,1.000,2.000,5.000,0
"05/11/08","02:16:40",7263.000,"cc",28306.986,6,0.100,6322.000,0.200,872.000,0.300,60.000,0.500,8.000,1.000,1.000,5.000,0
"05/11/08","02:16:46",5528.000,"cc",28315.039,6,0.100,4759.000,0.200,701.000,0.300,58.000,0.500,9.000,1.000,1.000,5.000,0
"05/11/08","02:16:52",7272.000,"cc",28275.350,6,0.100,6225.000,0.200,949.000,0.300,88.000,0.500,10.000,1.000,0,5.000,0
"05/11/08","02:16:58",5419.000,"cc",28328.025,6,0.100,4720.000,0.200,642.000,0.300,42.000,0.500,15.000,1.000,0,5.000,0
"05/11/08","02:17:04",5977.000,"cc",28296.117,6,0.100,5211.000,0.200,712.000,0.300,47.000,0.500,7.000,1.000,0,5.000,0
"05/11/08","02:17:10",6486.000,"cc",28358.854,6,0.100,5675.000,0.200,756.000,0.300,47.000,0.500,8.000,1.000,0,5.000,0
"05/11/08","02:17:16",4748.000,"cc",28273.578,6,0.100,4130.000,0.200,575.000,0.300,36.000,0.500,7.000,1.000,0,5.000,0
"05/11/08","02:17:22",7862.000,"cc",28325.391,6,0.100,6859.000,0.200,933.000,0.300,59.000,0.500,10.000,1.000,1.000,5.000,0
"05/11/08","02:17:28",9263.000,"cc",28316.316,6,0.100,8030.000,0.200,1145.000,0.300,77.000,0.500,11.000,1.000,0,5.000,0
"05/11/08","02:17:34",7820.000,"cc",28348.744,6,0.100,6819.000,0.200,918.000,0.300,73.000,0.500,10.000,1.000,0,5.000,0
"05/11/08","02:17:40",6870.000,"cc",28361.266,6,0.100,5942.000,0.200,851.000,0.300,66.000,0.500,11.000,1.000,0,5.000,0
"05/11/08","02:17:46",13692.000,"cc",28282.576,6,0.100,11980.000,0.200,1617.000,0.300,76.000,0.500,18.000,1.000,1.000,5.000,0
"05/11/08","02:17:52",15255.000,"cc",28307.713,6,0.100,13307.000,0.200,1840.000,0.300,92.000,0.500,14.000,1.000,2.000,5.000,0
"05/11/08","02:17:58",7403.000,"cc",28264.049,6,0.100,6457.000,0.200,879.000,0.300,58.000,0.500,9.000,1.000,0,5.000,0
"05/11/08","02:18:04",9357.000,"cc",28310.570,6,0.100,8224.000,0.200,1058.000,0.300,61.000,0.500,14.000,1.000,0,5.000,0
"05/11/08","02:18:10",18637.000,"cc",28291.225,6,0.100,16354.000,0.200,2165.000,0.300,101.000,0.500,16.000,1.000,1.000,5.000,0
"05/11/08","02:18:16",8607.000,"cc",28353.754,6,0.100,7452.000,0.200,1085.000,0.300,61.000,0.500,8.000,1.000,1.000,5.000,0
"05/11/08","02:18:22",5406.000,"cc",28347.984,6,0.100,4668.000,0.200,697.000,0.300,35.000,0.500,5.000,1.000,1.000,5.000,0
"05/11/08","02:18:28",6041.000,"cc",28310.955,6,0.100,5191.000,0.200,783.000,0.300,50.000,0.500,16.000,1.000,1.000,5.000,0
"05/11/08","02:18:34",10179.000,"cc",28336.514,6,0.100,8812.000,0.200,1284.000,0.300,74.000,0.500,9.000,1.000,0,5.000,0